Flag for Australia Weather past 2 weeks in Perth, Western Australia, Australia

Now
63 °F

Clear.


Feels Like: 63 °F
Forecast: 64 / 84 °F
Wind: 8 mph from West

Location: Belmont Perth Airport

Current Time: Mar 30, 2015 at 4:53:36 AM

Latest Report: Mar 30, 2015 at 4:00 AM


Visibility: 10 mi

Pressure: 29.95 "Hg

Humidity: 73%

Dew point: 54 °F

Location of PerthLocation

Historic Weather in Perth — Graph

°F

Perth temperature yesterday

Maximum temperature yesterday: 88 °F (at 12:30 PM)
Minimum temperature yesterday: 52 °F (at 4:00 AM)
Average temperature yesterday: 72 °F

Past Weeks' High & Low Weather Summary

 TemperatureHumidityPressure
High88 °F (Mar 20, 3:00 PM)100% (Mar 15, 4:00 AM)30.42 "Hg (Mar 15, 4:00 AM)
Low52 °F (Mar 28, 5:30 AM)16% (Mar 25, 4:30 PM)29.68 "Hg (Mar 18, 3:00 AM)
Average69 °F60%30.04 "Hg
* Reported Mar 15 3:00 AM — Mar 30 3:00 AM, Perth, Weather by CustomWeather, © 2015

Note: Actual official high and low records may vary slightly from our data, if they occured in-between our weather recording intervals... More about our weather records

Advertising

Perth weather history for previous 24 hours

 ConditionsComfort  
Time TempWeatherWind HumidityBarometerVisibility
3:00 AM
Mon, Mar 30
55 °FClear.3 mph88%29.95 "Hg10 mi
2:30 AM57 °FClear.5 mph88%29.98 "Hg10 mi
2:00 AM57 °FClear.3 mph88%29.98 "Hg10 mi
1:30 AM57 °FClear.5 mph88%30.01 "Hg10 mi
1:00 AM57 °FClear.No wind88%30.01 "Hg10 mi
12:00 AM61 °FClear.2 mph77%30.01 "Hg10 mi
11:30 PM
Sun, Mar 29
61 °FClear.1 mph77%30.04 "Hg10 mi
11:00 PM61 °FClear.6 mph77%30.01 "Hg10 mi
10:00 PM68 °FClear.8 mph64%30.04 "Hg10 mi
9:30 PM70 °FClear.7 mph60%30.04 "Hg10 mi
9:00 PM72 °FClear.10 mph53%30.04 "Hg10 mi
8:30 PM72 °FClear.10 mph57%30.04 "Hg10 mi
8:00 PM73 °FClear.14 mph53%30.04 "Hg10 mi
7:30 PM75 °FClear.14 mph47%30.04 "Hg10 mi
7:00 PM75 °FClear.12 mph47%30.04 "Hg10 mi
6:30 PM77 °FClear.9 mph44%30.01 "Hg10 mi
6:00 PM79 °FClear.12 mph37%30.01 "Hg10 mi
5:30 PM82 °FClear.15 mph30%30.01 "Hg10 mi
5:00 PM82 °FPleasantly warm.13 mph30%30.01 "HgN/A
4:30 PM84 °FSunny.14 mph29%30.01 "Hg10 mi
4:00 PM86 °FSunny.14 mph29%30.01 "Hg10 mi
3:30 PM86 °FSunny.13 mph27%30.01 "Hg10 mi
3:00 PM86 °FSunny.13 mph29%30.01 "Hg10 mi
2:30 PM88 °FSunny.14 mph22%30.01 "Hg10 mi
2:00 PM88 °FSunny.10 mph21%30.01 "Hg10 mi
1:30 PM88 °FSunny.3 mph22%30.04 "Hg10 mi
1:00 PM88 °FSunny.7 mph24%30.04 "Hg10 mi
12:30 PM88 °FSunny.8 mph22%30.07 "Hg10 mi
12:00 PM86 °FSunny.5 mph24%30.07 "Hg10 mi
11:30 AM84 °FSunny.8 mph29%30.09 "Hg10 mi
11:00 AM82 °FSunny.8 mph30%30.09 "Hg10 mi
10:30 AM81 °FSunny.8 mph39%30.12 "Hg10 mi
10:00 AM79 °FSunny.9 mph42%30.12 "Hg10 mi
9:00 AM72 °FSunny.12 mph53%30.12 "Hg10 mi
8:30 AM68 °FSunny.13 mph60%30.12 "Hg10 mi
8:00 AM66 °FSunny.15 mph64%30.12 "Hg10 mi
7:30 AM64 °FSunny.12 mph68%30.12 "Hg10 mi
7:00 AM63 °FSunny.14 mph73%30.12 "Hg10 mi
6:00 AM59 °FSunny.6 mph82%30.09 "Hg10 mi
5:30 AM54 °FSunny.8 mph94%30.09 "Hg10 mi
4:30 AM52 °FClear.5 mph94%30.09 "Hg10 mi
4:00 AM52 °FClear.3 mph100%30.09 "Hg10 mi
Weather by CustomWeather, © 2015

See weather overviewHow to use our weather pages